Location: Lombard
(41.8800°N, 88.0080°W)
Time: 06:05:10
(UTC-05:00)

POLYITAN 1 - Visible Passes

Search period start: 22 May 2022 00:00
Search period end: 01 June 2022 00:00
Orbit: 586 x 607 km, 98.0° (Epoch: 21 May)

Date Brightness Start Highest point End Pass type
(mag) Time Alt. Az. Time Alt. Az. Time Alt. Az.
22 May ? 02:30:46 10° NNE 02:34:56 72° ESE 02:35:10 69° SE visible
22 May ? 04:08:58 10° NW 04:09:57 11° WNW 04:10:58 10° WNW visible
23 May ? 02:40:50 10° NNE 02:45:00 87° WNW 02:45:24 73° SSW visible
24 May ? 02:50:55 10° N 02:55:03 67° WNW 02:55:37 58° WSW visible
25 May ? 01:27:10 10° ENE 01:29:09 13° E 01:29:09 13° E visible
25 May ? 03:01:02 10° N 03:05:04 51° WNW 03:05:50 44° WSW visible
26 May ? 01:36:33 10° NE 01:39:17 17° E 01:39:21 17° E visible
26 May ? 03:11:11 10° N 03:15:04 39° WNW 03:16:02 34° WSW visible
27 May ? 01:46:10 10° NE 01:49:23 21° E 01:49:32 21° E visible
27 May ? 03:21:23 10° N 03:25:02 31° WNW 03:26:13 26° W visible
28 May ? 01:55:54 10° NE 01:59:29 27° E 01:59:43 27° ESE visible
28 May ? 03:31:36 10° NNW 03:35:00 25° WNW 03:36:23 20° W visible
29 May ? 02:05:42 10° NNE 02:09:32 35° E 02:09:52 35° ESE visible
29 May ? 03:41:55 10° NNW 03:44:55 20° WNW 03:46:33 16° W visible
30 May ? 02:15:34 10° NNE 02:19:34 46° E 02:20:01 44° ESE visible
30 May ? 03:52:18 10° NNW 03:54:49 16° WNW 03:56:42 12° W visible
31 May ? 02:25:28 10° NNE 02:29:35 60° ESE 02:30:10 54° SE visible
31 May ? 04:02:55 10° NW 04:04:42 13° WNW 04:06:29 10° W visible
